Time,TemperatureF,DewpointF,PressureIn,WindDirection,WindDirectionDegrees,WindSpeedMPH,WindSpeedGustMPH,Humidity,HourlyPrecipIn,Conditions,Clouds,dailyrainin,SoftwareType,DateUTC
2013-03-06 00:00:00,44.3,39.4,29.73,NW,315,0.0,1.8,83,0.00,,,0.00,WUHU216HW,2013-03-06 08:00:00,
2013-03-06 00:05:00,44.3,39.4,29.72,WNW,293,0.0,1.8,83,0.00,,,0.00,WUHU216HW,2013-03-06 08:05:00,
2013-03-06 00:10:00,44.3,39.8,29.72,SW,225,0.2,0.7,84,0.00,,,0.00,WUHU216HW,2013-03-06 08:10:00,
2013-03-06 00:15:00,44.1,39.9,29.72,North,0,1.6,3.1,85,0.00,,,0.00,WUHU216HW,2013-03-06 08:15:00,
2013-03-06 00:20:00,44.1,39.6,29.72,NNW,338,0.0,3.1,84,0.00,,,0.00,WUHU216HW,2013-03-06 08:20:00,
2013-03-06 00:25:00,43.9,39.1,29.72,NNW,338,0.0,1.6,83,0.00,,,0.00,WUHU216HW,2013-03-06 08:25:00,
2013-03-06 00:30:00,44.1,39.6,29.72,North,0,0.4,2.9,84,0.00,,,0.00,WUHU216HW,2013-03-06 08:30:00,
2013-03-06 00:35:00,44.1,39.6,29.71,North,0,2.0,2.9,84,0.00,,,0.00,WUHU216HW,2013-03-06 08:35:00,
2013-03-06 00:40:00,43.9,39.7,29.71,NNE,23,0.9,2.7,85,0.00,,,0.00,WUHU216HW,2013-03-06 08:40:00,
2013-03-06 00:45:00,43.7,39.5,29.71,NNE,23,2.0,3.6,85,0.00,,,0.00,WUHU216HW,2013-03-06 08:45:00,
2013-03-06 00:50:00,43.7,39.5,29.70,NNE,23,1.6,3.6,85,0.00,,,0.00,WUHU216HW,2013-03-06 08:50:00,
2013-03-06 00:55:00,43.6,39.3,29.70,NNW,338,1.3,3.4,85,0.00,,,0.00,WUHU216HW,2013-03-06 08:55:00,
2013-03-06 01:00:00,43.6,39.3,29.70,North,0,0.4,3.6,85,0.00,,,0.00,WUHU216HW,2013-03-06 09:00:00,
2013-03-06 01:05:00,43.6,39.6,29.70,North,0,1.3,3.6,86,0.00,,,0.00,WUHU216HW,2013-03-06 09:05:00,
2013-03-06 01:10:00,43.6,39.3,29.70,NNE,23,2.0,3.6,85,0.00,,,0.00,WUHU216HW,2013-03-06 09:10:00,
2013-03-06 01:15:00,43.6,39.3,29.70,North,0,1.3,2.9,85,0.00,,,0.00,WUHU216HW,2013-03-06 09:15:00,
2013-03-06 01:20:00,43.6,39.3,29.70,NNW,338,0.2,2.5,85,0.00,,,0.00,WUHU216HW,2013-03-06 09:20:00,
2013-03-06 01:25:00,43.6,39.3,29.70,NNE,23,1.1,2.5,85,0.00,,,0.00,WUHU216HW,2013-03-06 09:25:00,
2013-03-06 01:30:00,43.6,39.3,29.69,North,0,0.0,1.3,85,0.00,,,0.00,WUHU216HW,2013-03-06 09:30:00,
2013-03-06 01:35:00,43.7,39.5,29.69,NNE,23,0.7,1.1,85,0.00,,,0.00,WUHU216HW,2013-03-06 09:35:00,
2013-03-06 01:40:00,43.7,39.5,29.69,NE,45,0.4,1.3,85,0.00,,,0.00,WUHU216HW,2013-03-06 09:40:00,
2013-03-06 01:45:00,43.6,39.3,29.68,North,0,0.0,1.3,85,0.00,,,0.00,WUHU216HW,2013-03-06 09:45:00,
2013-03-06 01:50:00,43.6,39.3,29.68,North,0,0.2,1.3,85,0.00,,,0.00,WUHU216HW,2013-03-06 09:50:00,
2013-03-06 01:55:00,43.6,39.3,29.68,NNE,23,1.1,1.1,85,0.00,,,0.00,WUHU216HW,2013-03-06 09:55:00,
2013-03-06 02:00:00,43.6,39.3,29.68,North,0,0.9,2.0,85,0.00,,,0.00,WUHU216HW,2013-03-06 10:00:00,
2013-03-06 02:05:00,43.6,39.3,29.67,NNW,338,0.4,2.0,85,0.00,,,0.00,WUHU216HW,2013-03-06 10:05:00,
2013-03-06 02:10:00,43.6,39.3,29.67,West,270,0.0,1.1,85,0.00,,,0.00,WUHU216HW,2013-03-06 10:10:00,
2013-03-06 02:15:00,43.4,39.2,29.67,NNE,23,2.9,2.9,85,0.00,,,0.00,WUHU216HW,2013-03-06 10:15:00,
2013-03-06 02:20:00,43.4,39.2,29.67,North,0,1.8,2.9,85,0.00,,,0.00,WUHU216HW,2013-03-06 10:20:00,
2013-03-06 02:25:00,43.2,39.0,29.66,North,0,1.3,2.9,85,0.00,,,0.00,WUHU216HW,2013-03-06 10:25:00,
2013-03-06 02:30:00,43.2,39.0,29.66,North,0,0.7,2.0,85,0.00,,,0.00,WUHU216HW,2013-03-06 10:30:00,
2013-03-06 02:35:00,43.0,38.8,29.66,North,0,2.5,3.6,85,0.00,,,0.00,WUHU216HW,2013-03-06 10:35:00,
2013-03-06 02:40:00,43.0,38.8,29.66,NNE,23,1.1,3.6,85,0.00,,,0.00,WUHU216HW,2013-03-06 10:40:00,
2013-03-06 02:45:00,42.8,38.6,29.65,NNE,23,1.6,2.5,85,0.00,,,0.00,WUHU216HW,2013-03-06 10:45:00,
2013-03-06 02:50:00,42.8,38.6,29.65,NNW,338,1.1,1.8,85,0.00,,,0.00,WUHU216HW,2013-03-06 10:50:00,
2013-03-06 02:55:00,42.8,38.6,29.64,North,0,1.3,2.5,85,0.00,,,0.00,WUHU216HW,2013-03-06 10:55:00,
2013-03-06 03:00:00,42.8,38.6,29.64,North,0,2.2,3.6,85,0.00,,,0.00,WUHU216HW,2013-03-06 11:00:00,
2013-03-06 03:05:00,42.7,38.4,29.64,North,0,0.7,3.6,85,0.00,,,0.00,WUHU216HW,2013-03-06 11:05:00,
2013-03-06 03:10:00,42.7,38.4,29.64,NNE,23,0.7,2.7,85,0.00,,,0.00,WUHU216HW,2013-03-06 11:10:00,
2013-03-06 03:15:00,42.7,38.7,29.64,NNW,338,0.0,1.6,86,0.00,,,0.00,WUHU216HW,2013-03-06 11:15:00,
2013-03-06 03:20:00,42.7,38.4,29.64,North,0,0.2,2.2,85,0.00,,,0.00,WUHU216HW,2013-03-06 11:20:00,
2013-03-06 03:25:00,42.7,38.4,29.63,NNE,23,2.2,4.3,85,0.00,,,0.00,WUHU216HW,2013-03-06 11:25:00,
2013-03-06 03:30:00,42.5,38.5,29.63,North,0,2.0,4.3,86,0.00,,,0.00,WUHU216HW,2013-03-06 11:30:00,
2013-03-06 03:35:00,42.7,38.7,29.63,NNW,338,2.7,4.5,86,0.00,,,0.00,WUHU216HW,2013-03-06 11:35:00,
2013-03-06 03:40:00,42.7,38.7,29.63,NNE,23,1.1,4.5,86,0.00,,,0.00,WUHU216HW,2013-03-06 11:40:00,
2013-03-06 03:45:00,42.7,38.7,29.63,NNE,23,0.9,2.7,86,0.00,,,0.00,WUHU216HW,2013-03-06 11:45:00,
2013-03-06 03:50:00,42.7,38.7,29.63,NE,45,0.7,3.8,86,0.00,,,0.00,WUHU216HW,2013-03-06 11:50:00,
2013-03-06 03:55:00,42.7,39.1,29.63,NNE,23,0.4,3.8,87,0.00,,,0.00,WUHU216HW,2013-03-06 11:55:00,
2013-03-06 04:00:00,42.7,39.1,29.63,NE,45,0.4,2.5,87,0.00,,,0.00,WUHU216HW,2013-03-06 12:00:00,
2013-03-06 04:05:00,42.7,39.1,29.63,SE,135,0.7,1.3,87,0.00,,,0.00,WUHU216HW,2013-03-06 12:05:00,
2013-03-06 04:10:00,42.7,38.7,29.63,SE,135,0.2,1.3,86,0.00,,,0.00,WUHU216HW,2013-03-06 12:10:00,
2013-03-06 04:15:00,42.7,38.7,29.62,ENE,68,0.0,0.7,86,0.00,,,0.00,WUHU216HW,2013-03-06 12:15:00,
2013-03-06 04:20:00,42.7,38.7,29.62,ESE,113,1.1,1.1,86,0.00,,,0.00,WUHU216HW,2013-03-06 12:20:00,
2013-03-06 04:25:00,42.7,38.4,29.62,North,0,0.2,1.1,85,0.00,,,0.00,WUHU216HW,2013-03-06 12:25:00,
2013-03-06 04:30:00,42.5,38.5,29.62,NE,45,0.4,1.1,86,0.00,,,0.00,WUHU216HW,2013-03-06 12:30:00,
2013-03-06 04:35:00,42.7,38.7,29.62,NNE,23,0.0,0.7,86,0.00,,,0.00,WUHU216HW,2013-03-06 12:35:00,
2013-03-06 04:40:00,42.5,38.5,29.62,NE,45,0.2,1.1,86,0.00,,,0.00,WUHU216HW,2013-03-06 12:40:00,
2013-03-06 04:45:00,42.5,38.5,29.62,WNW,293,1.3,1.8,86,0.00,,,0.00,WUHU216HW,2013-03-06 12:45:00,
2013-03-06 04:50:00,42.5,38.5,29.62,North,0,0.2,3.8,86,0.00,,,0.00,WUHU216HW,2013-03-06 12:50:00,
2013-03-06 04:55:00,42.5,38.5,29.62,NNW,338,1.6,3.8,86,0.00,,,0.00,WUHU216HW,2013-03-06 12:55:00,
2013-03-06 05:00:00,42.5,38.5,29.62,NNE,23,0.0,1.6,86,0.00,,,0.00,WUHU216HW,2013-03-06 13:00:00,
2013-03-06 05:05:00,42.5,38.5,29.62,North,0,0.7,1.3,86,0.00,,,0.00,WUHU216HW,2013-03-06 13:05:00,
2013-03-06 05:10:00,42.7,38.4,29.61,NNE,23,1.1,1.8,85,0.00,,,0.00,WUHU216HW,2013-03-06 13:10:00,
2013-03-06 05:15:00,42.5,38.3,29.61,North,0,1.1,2.5,85,0.00,,,0.00,WUHU216HW,2013-03-06 13:15:00,
2013-03-06 05:20:00,42.5,38.3,29.61,NNE,23,2.0,2.5,85,0.00,,,0.00,WUHU216HW,2013-03-06 13:20:00,
2013-03-06 05:25:00,42.5,38.5,29.61,North,0,2.2,4.5,86,0.00,,,0.00,WUHU216HW,2013-03-06 13:25:00,
2013-03-06 05:30:00,42.5,38.5,29.60,North,0,1.1,4.5,86,0.00,,,0.00,WUHU216HW,2013-03-06 13:30:00,
2013-03-06 05:35:00,42.5,38.5,29.60,North,0,4.5,5.6,86,0.00,,,0.00,WUHU216HW,2013-03-06 13:35:00,
2013-03-06 05:40:00,42.5,38.5,29.60,NE,45,3.1,5.6,86,0.00,,,0.00,WUHU216HW,2013-03-06 13:40:00,
2013-03-06 05:45:00,42.5,38.5,29.60,NNE,23,1.6,4.7,86,0.00,,,0.00,WUHU216HW,2013-03-06 13:45:00,
2013-03-06 05:50:00,42.5,38.5,29.60,NNE,23,6.5,8.1,86,0.00,,,0.00,WUHU216HW,2013-03-06 13:50:00,
2013-03-06 05:55:00,42.7,38.4,29.60,NNW,338,2.0,8.1,85,0.00,,,0.00,WUHU216HW,2013-03-06 13:55:00,
2013-03-06 06:00:00,42.7,38.4,29.59,North,0,1.8,6.5,85,0.00,,,0.00,WUHU216HW,2013-03-06 14:00:00,
2013-03-06 06:05:00,42.7,38.7,29.59,North,0,1.8,5.4,86,0.00,,,0.00,WUHU216HW,2013-03-06 14:05:00,
2013-03-06 06:10:00,42.8,38.6,29.59,NNE,23,1.6,5.4,85,0.00,,,0.00,WUHU216HW,2013-03-06 14:10:00,
2013-03-06 06:15:00,42.8,38.6,29.59,North,0,4.3,4.7,85,0.00,,,0.00,WUHU216HW,2013-03-06 14:15:00,
2013-03-06 06:20:00,42.8,38.6,29.59,NE,45,2.5,5.4,85,0.00,,,0.00,WUHU216HW,2013-03-06 14:20:00,
2013-03-06 06:25:00,42.8,38.6,29.59,NNE,23,4.0,5.4,85,0.00,,,0.00,WUHU216HW,2013-03-06 14:25:00,
2013-03-06 06:30:00,42.8,38.6,29.59,NNW,338,2.7,6.9,85,0.00,,,0.00,WUHU216HW,2013-03-06 14:30:00,
2013-03-06 06:35:00,43.0,38.8,29.58,NNE,23,2.5,6.9,85,0.00,,,0.00,WUHU216HW,2013-03-06 14:35:00,
2013-03-06 06:40:00,43.0,38.8,29.59,NNE,23,3.6,5.8,85,0.00,,,0.00,WUHU216HW,2013-03-06 14:40:00,
2013-03-06 06:45:00,43.0,38.8,29.59,North,0,4.7,4.7,85,0.00,,,0.00,WUHU216HW,2013-03-06 14:45:00,
2013-03-06 06:50:00,43.0,38.8,29.59,North,0,0.7,6.5,85,0.00,,,0.00,WUHU216HW,2013-03-06 14:50:00,
2013-03-06 06:55:00,43.2,39.2,29.58,North,0,2.7,6.5,86,0.00,,,0.00,WUHU216HW,2013-03-06 14:55:00,
2013-03-06 07:00:00,43.2,39.2,29.58,North,0,1.1,4.9,86,0.00,,,0.00,WUHU216HW,2013-03-06 15:00:00,
2013-03-06 07:05:00,43.2,39.2,29.58,NNE,23,5.4,5.8,86,0.00,,,0.00,WUHU216HW,2013-03-06 15:05:00,
2013-03-06 07:10:00,43.2,39.2,29.59,NNE,23,4.7,5.8,86,0.00,,,0.00,WUHU216HW,2013-03-06 15:10:00,
2013-03-06 07:15:00,43.2,39.6,29.58,NNE,23,1.8,5.4,87,0.00,,,0.00,WUHU216HW,2013-03-06 15:15:00,
2013-03-06 07:20:00,43.4,40.1,29.58,North,0,3.4,8.3,88,0.00,,,0.00,WUHU216HW,2013-03-06 15:20:00,
2013-03-06 07:25:00,43.4,40.1,29.58,North,0,4.0,8.3,88,0.00,,,0.00,WUHU216HW,2013-03-06 15:25:00,
2013-03-06 07:30:00,43.4,40.1,29.58,North,0,3.6,6.9,88,0.00,,,0.00,WUHU216HW,2013-03-06 15:30:00,
2013-03-06 07:35:00,43.6,40.0,29.58,North,0,2.5,6.9,87,0.00,,,0.00,WUHU216HW,2013-03-06 15:35:00,
2013-03-06 07:40:00,43.6,40.2,29.58,NNE,23,2.5,7.6,88,0.00,,,0.00,WUHU216HW,2013-03-06 15:40:00,
2013-03-06 07:45:00,43.6,40.0,29.59,North,0,1.8,7.6,87,0.00,,,0.00,WUHU216HW,2013-03-06 15:45:00,
2013-03-06 07:50:00,43.6,40.0,29.58,North,0,6.0,6.3,87,0.00,,,0.00,WUHU216HW,2013-03-06 15:50:00,
2013-03-06 07:55:00,43.6,40.0,29.59,NNW,338,0.7,6.3,87,0.00,,,0.00,WUHU216HW,2013-03-06 15:55:00,
2013-03-06 08:00:00,43.7,39.8,29.59,NNW,338,1.1,7.6,86,0.00,,,0.00,WUHU216HW,2013-03-06 16:00:00,
2013-03-06 08:05:00,43.7,39.8,29.59,NE,45,1.1,7.6,86,0.00,,,0.00,WUHU216HW,2013-03-06 16:05:00,
2013-03-06 08:10:00,43.7,39.5,29.59,NE,45,2.5,6.5,85,0.00,,,0.00,WUHU216HW,2013-03-06 16:10:00,
2013-03-06 08:15:00,43.7,39.5,29.59,NNE,23,4.3,8.5,85,0.00,,,0.00,WUHU216HW,2013-03-06 16:15:00,
2013-03-06 08:20:00,43.9,39.4,29.59,NE,45,3.4,8.5,84,0.00,,,0.00,WUHU216HW,2013-03-06 16:20:00,
2013-03-06 08:25:00,43.9,39.1,29.59,ESE,113,1.1,6.3,83,0.00,,,0.00,WUHU216HW,2013-03-06 16:25:00,
2013-03-06 08:30:00,44.1,39.2,29.60,North,0,1.3,5.4,83,0.00,,,0.00,WUHU216HW,2013-03-06 16:30:00,
2013-03-06 08:35:00,44.3,39.2,29.59,North,0,2.0,3.1,82,0.00,,,0.00,WUHU216HW,2013-03-06 16:35:00,
2013-03-06 08:40:00,44.3,39.2,29.60,ENE,68,1.3,3.4,82,0.00,,,0.00,WUHU216HW,2013-03-06 16:40:00,
2013-03-06 08:45:00,44.5,39.3,29.60,NNE,23,1.6,3.4,82,0.00,,,0.00,WUHU216HW,2013-03-06 16:45:00,
2013-03-06 08:50:00,44.6,39.2,29.60,East,90,1.1,3.4,81,0.00,,,0.00,WUHU216HW,2013-03-06 16:50:00,
2013-03-06 08:55:00,44.6,39.2,29.60,North,0,2.5,3.4,81,0.00,,,0.00,WUHU216HW,2013-03-06 16:55:00,
2013-03-06 09:00:00,44.5,39.0,29.60,NNW,338,1.1,5.6,81,0.00,,,0.00,WUHU216HW,2013-03-06 17:00:00,
2013-03-06 09:05:00,44.5,39.0,29.60,North,0,2.5,5.6,81,0.00,,,0.00,WUHU216HW,2013-03-06 17:05:00,
2013-03-06 09:10:00,44.3,38.8,29.60,NNW,338,1.3,5.1,81,0.00,,,0.00,WUHU216HW,2013-03-06 17:10:00,
2013-03-06 09:15:00,44.3,39.2,29.60,NNE,23,3.1,5.1,82,0.00,,,0.00,WUHU216HW,2013-03-06 17:15:00,
2013-03-06 09:20:00,44.3,39.4,29.60,NE,45,0.4,4.7,83,0.00,,,0.00,WUHU216HW,2013-03-06 17:20:00,
2013-03-06 09:25:00,44.3,39.4,29.61,North,0,0.7,4.7,83,0.00,,,0.00,WUHU216HW,2013-03-06 17:25:00,
2013-03-06 09:30:00,44.5,39.6,29.61,North,0,0.4,3.4,83,0.00,,,0.00,WUHU216HW,2013-03-06 17:30:00,
2013-03-06 09:35:00,44.5,40.0,29.61,NNE,23,1.1,3.4,84,0.00,,,0.00,WUHU216HW,2013-03-06 17:35:00,
2013-03-06 09:40:00,44.5,40.0,29.61,NW,315,1.3,3.1,84,0.00,,,0.00,WUHU216HW,2013-03-06 17:40:00,
2013-03-06 09:45:00,44.5,40.2,29.61,NNE,23,1.8,4.5,85,0.00,,,0.00,WUHU216HW,2013-03-06 17:45:00,
2013-03-06 09:50:00,44.5,40.2,29.61,NNE,23,2.5,4.9,85,0.00,,,0.00,WUHU216HW,2013-03-06 17:50:00,
2013-03-06 09:55:00,44.5,40.2,29.61,ESE,113,1.1,5.4,85,0.01,,,0.01,WUHU216HW,2013-03-06 17:55:00,
2013-03-06 10:00:00,44.5,40.5,29.61,NNW,338,1.8,5.4,86,0.01,,,0.01,WUHU216HW,2013-03-06 18:00:00,
2013-03-06 10:05:00,44.5,40.5,29.61,NNE,23,1.1,4.7,86,0.01,,,0.01,WUHU216HW,2013-03-06 18:05:00,
2013-03-06 10:10:00,44.6,41.1,29.61,NNE,23,3.4,5.4,87,0.01,,,0.01,WUHU216HW,2013-03-06 18:10:00,
2013-03-06 10:15:00,44.6,40.7,29.61,North,0,0.2,5.4,86,0.01,,,0.01,WUHU216HW,2013-03-06 18:15:00,
2013-03-06 10:20:00,44.6,41.1,29.61,North,0,2.2,4.0,87,0.01,,,0.01,WUHU216HW,2013-03-06 18:20:00,
2013-03-06 10:25:00,44.6,41.1,29.61,NNE,23,4.3,4.7,87,0.01,,,0.01,WUHU216HW,2013-03-06 18:25:00,
2013-03-06 10:30:00,44.6,41.1,29.62,NNE,23,1.8,4.7,87,0.01,,,0.01,WUHU216HW,2013-03-06 18:30:00,
2013-03-06 10:35:00,44.6,41.3,29.62,ENE,68,1.8,4.3,88,0.01,,,0.01,WUHU216HW,2013-03-06 18:35:00,
2013-03-06 10:40:00,44.6,41.3,29.62,NNE,23,1.1,2.9,88,0.01,,,0.01,WUHU216HW,2013-03-06 18:40:00,
2013-03-06 10:45:00,44.8,41.2,29.62,North,0,0.9,2.9,87,0.01,,,0.01,WUHU216HW,2013-03-06 18:45:00,
2013-03-06 10:50:00,45.0,41.7,29.62,NNW,338,3.4,3.6,88,0.01,,,0.01,WUHU216HW,2013-03-06 18:50:00,
2013-03-06 10:55:00,44.8,41.5,29.62,NNE,23,1.3,3.6,88,0.00,,,0.01,WUHU216HW,2013-03-06 18:55:00,
2013-03-06 11:00:00,44.6,41.3,29.62,NNW,338,1.6,6.3,88,0.01,,,0.02,WUHU216HW,2013-03-06 19:00:00,
2013-03-06 11:05:00,44.6,41.3,29.63,NNW,338,0.7,6.3,88,0.01,,,0.02,WUHU216HW,2013-03-06 19:05:00,
2013-03-06 11:10:00,44.6,41.3,29.63,NNW,338,1.1,3.8,88,0.01,,,0.02,WUHU216HW,2013-03-06 19:10:00,
2013-03-06 11:15:00,44.6,41.3,29.63,NNW,338,1.8,3.1,88,0.02,,,0.03,WUHU216HW,2013-03-06 19:15:00,
2013-03-06 11:20:00,44.8,41.5,29.63,NW,315,0.2,3.1,88,0.02,,,0.03,WUHU216HW,2013-03-06 19:20:00,
2013-03-06 11:25:00,44.6,41.7,29.63,NW,315,0.9,2.5,89,0.02,,,0.03,WUHU216HW,2013-03-06 19:25:00,
2013-03-06 11:30:00,44.6,41.7,29.63,NNE,23,4.3,4.3,89,0.02,,,0.03,WUHU216HW,2013-03-06 19:30:00,
2013-03-06 11:35:00,44.6,41.7,29.63,NNE,23,0.2,4.3,89,0.03,,,0.04,WUHU216HW,2013-03-06 19:35:00,
2013-03-06 11:40:00,44.8,41.9,29.64,NNE,23,0.9,4.3,89,0.03,,,0.04,WUHU216HW,2013-03-06 19:40:00,
2013-03-06 11:45:00,44.8,41.9,29.64,NNE,23,1.1,3.8,89,0.03,,,0.04,WUHU216HW,2013-03-06 19:45:00,
2013-03-06 11:50:00,45.0,42.0,29.64,NW,315,0.7,3.8,89,0.03,,,0.04,WUHU216HW,2013-03-06 19:50:00,
2013-03-06 11:55:00,45.0,42.0,29.64,North,0,1.1,2.2,89,0.03,,,0.04,WUHU216HW,2013-03-06 19:55:00,
2013-03-06 12:00:00,44.8,41.9,29.64,WNW,293,2.5,3.4,89,0.03,,,0.05,WUHU216HW,2013-03-06 20:00:00,
2013-03-06 12:05:00,44.8,41.9,29.65,NNW,338,1.3,3.4,89,0.03,,,0.05,WUHU216HW,2013-03-06 20:05:00,
2013-03-06 12:10:00,44.8,41.9,29.65,NE,45,3.1,3.1,89,0.03,,,0.05,WUHU216HW,2013-03-06 20:10:00,
2013-03-06 12:15:00,44.8,41.9,29.65,NNE,23,1.8,3.1,89,0.03,,,0.07,WUHU216HW,2013-03-06 20:15:00,
2013-03-06 12:20:00,44.6,41.7,29.65,NNW,338,0.9,3.1,89,0.03,,,0.07,WUHU216HW,2013-03-06 20:20:00,
2013-03-06 12:25:00,44.8,42.1,29.65,NE,45,1.8,3.1,90,0.03,,,0.07,WUHU216HW,2013-03-06 20:25:00,
2013-03-06 12:30:00,44.8,42.1,29.65,North,0,2.2,3.1,90,0.03,,,0.07,WUHU216HW,2013-03-06 20:30:00,
2013-03-06 12:35:00,44.8,41.9,29.65,North,0,1.8,2.7,89,0.03,,,0.07,WUHU216HW,2013-03-06 20:35:00,
2013-03-06 12:40:00,44.8,41.9,29.65,NNW,338,1.8,2.7,89,0.03,,,0.07,WUHU216HW,2013-03-06 20:40:00,
2013-03-06 12:45:00,44.8,41.9,29.65,North,0,1.6,2.9,89,0.03,,,0.07,WUHU216HW,2013-03-06 20:45:00,
2013-03-06 12:50:00,44.8,41.9,29.66,North,0,1.1,3.1,89,0.04,,,0.09,WUHU216HW,2013-03-06 20:50:00,
2013-03-06 12:55:00,44.8,41.9,29.66,NNE,23,1.6,3.1,89,0.04,,,0.09,WUHU216HW,2013-03-06 20:55:00,
2013-03-06 13:00:00,44.6,41.7,29.66,NNW,338,0.2,2.5,89,0.03,,,0.09,WUHU216HW,2013-03-06 21:00:00,
2013-03-06 13:05:00,44.8,41.9,29.66,NNE,23,1.6,1.8,89,0.03,,,0.09,WUHU216HW,2013-03-06 21:05:00,
2013-03-06 13:10:00,44.6,41.7,29.66,North,0,0.7,2.2,89,0.04,,,0.09,WUHU216HW,2013-03-06 21:10:00,
2013-03-06 13:15:00,44.6,41.3,29.67,NNE,23,2.0,2.2,88,0.03,,,0.09,WUHU216HW,2013-03-06 21:15:00,
2013-03-06 13:20:00,44.6,41.3,29.67,NNE,23,0.2,2.0,88,0.03,,,0.09,WUHU216HW,2013-03-06 21:20:00,
2013-03-06 13:25:00,44.6,41.7,29.67,NNE,23,0.0,2.0,89,0.03,,,0.09,WUHU216HW,2013-03-06 21:25:00,
2013-03-06 13:30:00,44.8,41.9,29.67,NNE,23,0.0,1.3,89,0.04,,,0.11,WUHU216HW,2013-03-06 21:30:00,
2013-03-06 13:35:00,45.0,42.0,29.67,NNE,23,0.0,0.7,89,0.03,,,0.11,WUHU216HW,2013-03-06 21:35:00,
2013-03-06 13:40:00,45.0,42.0,29.67,NNE,23,0.0,0.4,89,0.03,,,0.11,WUHU216HW,2013-03-06 21:40:00,
2013-03-06 13:45:00,45.0,41.7,29.67,NE,45,1.3,1.6,88,0.03,,,0.12,WUHU216HW,2013-03-06 21:45:00,
2013-03-06 13:50:00,45.0,41.7,29.67,NE,45,0.0,1.6,88,0.03,,,0.12,WUHU216HW,2013-03-06 21:50:00,
2013-03-06 13:55:00,45.2,41.9,29.67,NE,45,0.2,1.3,88,0.03,,,0.12,WUHU216HW,2013-03-06 21:55:00,
2013-03-06 14:00:00,45.4,42.0,29.67,NNE,23,0.0,0.4,88,0.04,,,0.12,WUHU216HW,2013-03-06 22:00:00,
2013-03-06 14:05:00,45.4,42.0,29.68,NNE,23,0.0,0.7,88,0.04,,,0.12,WUHU216HW,2013-03-06 22:05:00,
2013-03-06 14:10:00,45.5,42.2,29.68,NW,315,0.0,0.7,88,0.04,,,0.14,WUHU216HW,2013-03-06 22:10:00,
2013-03-06 14:15:00,45.5,42.2,29.68,NW,315,0.4,0.7,88,0.04,,,0.14,WUHU216HW,2013-03-06 22:15:00,
2013-03-06 14:20:00,45.4,42.0,29.68,SSW,203,0.0,0.7,88,0.04,,,0.14,WUHU216HW,2013-03-06 22:20:00,
2013-03-06 14:25:00,45.2,41.9,29.69,NNE,23,0.0,0.7,88,0.05,,,0.14,WUHU216HW,2013-03-06 22:25:00,
2013-03-06 14:30:00,45.2,42.2,29.69,ENE,68,0.2,0.7,89,0.04,,,0.14,WUHU216HW,2013-03-06 22:30:00,
2013-03-06 14:35:00,45.0,41.7,29.69,ENE,68,0.0,0.4,88,0.05,,,0.16,WUHU216HW,2013-03-06 22:35:00,
2013-03-06 14:40:00,45.0,41.7,29.69,ENE,68,0.0,0.7,88,0.04,,,0.16,WUHU216HW,2013-03-06 22:40:00,
2013-03-06 14:45:00,45.0,41.7,29.69,ENE,68,0.0,0.7,88,0.05,,,0.16,WUHU216HW,2013-03-06 22:45:00,
2013-03-06 14:50:00,45.0,41.7,29.70,NW,315,0.0,1.8,88,0.05,,,0.16,WUHU216HW,2013-03-06 22:50:00,
2013-03-06 14:55:00,44.8,41.5,29.70,NNE,23,0.0,1.8,88,0.06,,,0.18,WUHU216HW,2013-03-06 22:55:00,
2013-03-06 15:00:00,44.8,41.5,29.70,North,0,0.2,0.7,88,0.05,,,0.18,WUHU216HW,2013-03-06 23:00:00,
2013-03-06 15:05:00,44.8,41.5,29.70,North,0,0.0,0.7,88,0.06,,,0.19,WUHU216HW,2013-03-06 23:05:00,
2013-03-06 15:10:00,44.8,41.5,29.70,NNW,338,0.0,0.4,88,0.05,,,0.19,WUHU216HW,2013-03-06 23:10:00,
2013-03-06 15:15:00,44.6,41.3,29.70,North,0,0.4,0.4,88,0.06,,,0.20,WUHU216HW,2013-03-06 23:15:00,
2013-03-06 15:20:00,44.6,41.3,29.71,NW,315,0.2,1.1,88,0.06,,,0.20,WUHU216HW,2013-03-06 23:20:00,
2013-03-06 15:25:00,44.5,41.1,29.71,NW,315,0.0,1.1,88,0.06,,,0.21,WUHU216HW,2013-03-06 23:25:00,
2013-03-06 15:30:00,44.5,41.1,29.71,NW,315,0.0,1.1,88,0.06,,,0.21,WUHU216HW,2013-03-06 23:30:00,
2013-03-06 15:35:00,44.5,41.1,29.71,NW,315,0.0,0.7,88,0.06,,,0.22,WUHU216HW,2013-03-06 23:35:00,
2013-03-06 15:40:00,44.5,41.1,29.71,NW,315,0.0,0.4,88,0.06,,,0.22,WUHU216HW,2013-03-06 23:40:00,
2013-03-06 15:45:00,44.3,41.0,29.72,NW,315,0.0,0.4,88,0.06,,,0.23,WUHU216HW,2013-03-06 23:45:00,
2013-03-06 15:50:00,44.3,41.0,29.72,NW,315,0.0,0.0,88,0.06,,,0.23,WUHU216HW,2013-03-06 23:50:00,
2013-03-06 15:55:00,44.3,41.0,29.72,NW,315,0.0,0.0,88,0.06,,,0.24,WUHU216HW,2013-03-06 23:55:00,
2013-03-06 16:00:00,44.1,40.8,29.72,NW,315,0.0,0.0,88,0.06,,,0.24,WUHU216HW,2013-03-07 00:00:00,
2013-03-06 16:05:00,43.9,41.0,29.72,NW,315,0.0,0.4,89,0.06,,,0.25,WUHU216HW,2013-03-07 00:05:00,
2013-03-06 16:10:00,44.1,41.1,29.72,NW,315,0.0,0.4,89,0.06,,,0.25,WUHU216HW,2013-03-07 00:10:00,
2013-03-06 16:15:00,44.1,41.1,29.73,WNW,293,0.0,0.4,89,0.05,,,0.25,WUHU216HW,2013-03-07 00:15:00,
2013-03-06 16:20:00,44.3,41.0,29.73,WNW,293,0.0,0.4,88,0.05,,,0.26,WUHU216HW,2013-03-07 00:20:00,
2013-03-06 16:25:00,44.3,41.0,29.73,WSW,248,0.9,1.1,88,0.05,,,0.26,WUHU216HW,2013-03-07 00:25:00,
2013-03-06 16:30:00,44.3,41.0,29.73,SW,225,0.4,1.3,88,0.04,,,0.26,WUHU216HW,2013-03-07 00:30:00,
2013-03-06 16:35:00,44.1,40.8,29.74,SSW,203,0.0,1.3,88,0.05,,,0.27,WUHU216HW,2013-03-07 00:35:00,
2013-03-06 16:40:00,44.1,40.8,29.74,SSE,158,0.9,1.3,88,0.04,,,0.27,WUHU216HW,2013-03-07 00:40:00,
2013-03-06 16:45:00,44.3,41.0,29.74,SSE,158,0.0,1.3,88,0.04,,,0.27,WUHU216HW,2013-03-07 00:45:00,
2013-03-06 16:50:00,44.3,41.0,29.74,SSE,158,0.2,0.9,88,0.04,,,0.28,WUHU216HW,2013-03-07 00:50:00,
2013-03-06 16:55:00,44.1,40.8,29.74,SE,135,0.9,0.9,88,0.04,,,0.28,WUHU216HW,2013-03-07 00:55:00,
2013-03-06 17:00:00,43.9,41.0,29.74,South,180,0.4,1.3,89,0.04,,,0.29,WUHU216HW,2013-03-07 01:00:00,
2013-03-06 17:05:00,43.9,41.0,29.75,South,180,0.0,1.3,89,0.04,,,0.29,WUHU216HW,2013-03-07 01:05:00,
2013-03-06 17:10:00,43.9,40.6,29.75,South,180,0.0,0.4,88,0.04,,,0.29,WUHU216HW,2013-03-07 01:10:00,
2013-03-06 17:15:00,44.1,41.1,29.75,South,180,0.0,0.7,89,0.05,,,0.30,WUHU216HW,2013-03-07 01:15:00,
2013-03-06 17:20:00,44.1,40.8,29.75,South,180,0.0,0.7,88,0.04,,,0.30,WUHU216HW,2013-03-07 01:20:00,
2013-03-06 17:25:00,43.9,40.6,29.75,South,180,0.0,0.4,88,0.05,,,0.31,WUHU216HW,2013-03-07 01:25:00,
2013-03-06 17:30:00,43.7,40.4,29.76,South,180,0.0,0.0,88,0.05,,,0.31,WUHU216HW,2013-03-07 01:30:00,
2013-03-06 17:35:00,43.7,40.4,29.76,South,180,0.0,0.2,88,0.04,,,0.31,WUHU216HW,2013-03-07 01:35:00,
2013-03-06 17:40:00,43.9,40.6,29.76,South,180,0.0,0.2,88,0.04,,,0.31,WUHU216HW,2013-03-07 01:40:00,
2013-03-06 17:45:00,43.7,40.4,29.76,South,180,0.0,0.2,88,0.03,,,0.31,WUHU216HW,2013-03-07 01:45:00,
2013-03-06 17:50:00,43.7,40.4,29.77,South,180,0.0,0.4,88,0.03,,,0.31,WUHU216HW,2013-03-07 01:50:00,
2013-03-06 17:55:00,43.6,40.2,29.77,South,180,0.0,0.4,88,0.03,,,0.31,WUHU216HW,2013-03-07 01:55:00,
2013-03-06 18:00:00,43.6,40.2,29.77,South,180,0.0,0.0,88,0.02,,,0.31,WUHU216HW,2013-03-07 02:00:00,
2013-03-06 18:05:00,43.4,40.1,29.77,South,180,0.0,0.0,88,0.02,,,0.31,WUHU216HW,2013-03-07 02:05:00,
2013-03-06 18:10:00,43.2,39.9,29.77,South,180,0.0,0.0,88,0.02,,,0.31,WUHU216HW,2013-03-07 02:10:00,
2013-03-06 18:15:00,43.0,39.7,29.77,South,180,0.0,0.0,88,0.01,,,0.31,WUHU216HW,2013-03-07 02:15:00,
2013-03-06 18:20:00,42.8,39.5,29.77,South,180,0.0,0.0,88,0.00,,,0.31,WUHU216HW,2013-03-07 02:20:00,
2013-03-06 18:25:00,42.8,39.5,29.78,West,270,0.2,0.7,88,0.00,,,0.31,WUHU216HW,2013-03-07 02:25:00,
2013-03-06 18:30:00,42.7,39.7,29.78,West,270,0.4,0.7,89,0.00,,,0.31,WUHU216HW,2013-03-07 02:30:00,
2013-03-06 18:35:00,42.5,39.5,29.78,West,270,0.0,0.7,89,0.00,,,0.31,WUHU216HW,2013-03-07 02:35:00,
2013-03-06 18:40:00,42.5,39.5,29.78,NW,315,0.0,0.4,89,0.00,,,0.31,WUHU216HW,2013-03-07 02:40:00,
2013-03-06 18:45:00,42.5,39.5,29.79,East,90,0.4,0.7,89,0.05,,,0.36,WUHU216HW,2013-03-07 02:45:00,
2013-03-06 18:50:00,42.5,39.5,29.79,ENE,68,0.0,1.3,89,0.06,,,0.37,WUHU216HW,2013-03-07 02:50:00,
2013-03-06 18:55:00,42.5,39.5,29.79,ESE,113,0.2,1.3,89,0.06,,,0.37,WUHU216HW,2013-03-07 02:55:00,
2013-03-06 19:00:00,42.3,39.3,29.80,East,90,0.0,0.7,89,0.07,,,0.38,WUHU216HW,2013-03-07 03:00:00,
2013-03-06 19:05:00,42.1,39.4,29.80,NNE,23,0.2,1.6,90,0.07,,,0.38,WUHU216HW,2013-03-07 03:05:00,
2013-03-06 19:10:00,42.1,39.2,29.80,NNE,23,0.4,1.6,89,0.08,,,0.39,WUHU216HW,2013-03-07 03:10:00,
2013-03-06 19:15:00,42.1,39.4,29.80,East,90,1.1,1.3,90,0.09,,,0.40,WUHU216HW,2013-03-07 03:15:00,
2013-03-06 19:20:00,42.1,39.4,29.80,NNE,23,0.9,1.8,90,0.09,,,0.40,WUHU216HW,2013-03-07 03:20:00,
2013-03-06 19:25:00,42.1,39.4,29.80,North,0,0.7,2.0,90,0.10,,,0.41,WUHU216HW,2013-03-07 03:25:00,
2013-03-06 19:30:00,41.9,39.2,29.80,NNW,338,0.4,2.0,90,0.10,,,0.41,WUHU216HW,2013-03-07 03:30:00,
2013-03-06 19:35:00,41.9,39.2,29.80,ENE,68,0.4,1.1,90,0.11,,,0.42,WUHU216HW,2013-03-07 03:35:00,
2013-03-06 19:40:00,42.1,39.7,29.80,East,90,0.4,1.8,91,0.12,,,0.43,WUHU216HW,2013-03-07 03:40:00,
2013-03-06 19:45:00,42.1,39.4,29.80,ESE,113,0.4,2.0,90,0.07,,,0.43,WUHU216HW,2013-03-07 03:45:00,
2013-03-06 19:50:00,42.3,39.6,29.80,East,90,0.0,2.0,90,0.07,,,0.44,WUHU216HW,2013-03-07 03:50:00,
2013-03-06 19:55:00,42.5,40.1,29.80,East,90,0.2,1.1,91,0.08,,,0.45,WUHU216HW,2013-03-07 03:55:00,
2013-03-06 20:00:00,42.5,40.1,29.80,SSE,158,1.3,1.8,91,0.08,,,0.46,WUHU216HW,2013-03-07 04:00:00,
2013-03-06 20:05:00,42.5,40.1,29.81,East,90,1.6,2.0,91,0.08,,,0.47,WUHU216HW,2013-03-07 04:05:00,
2013-03-06 20:10:00,42.7,40.2,29.81,SSE,158,1.1,2.9,91,0.08,,,0.47,WUHU216HW,2013-03-07 04:10:00,
2013-03-06 20:15:00,42.7,40.5,29.81,SSW,203,4.0,4.0,92,0.08,,,0.48,WUHU216HW,2013-03-07 04:15:00,
2013-03-06 20:20:00,42.8,40.7,29.81,SSW,203,1.1,4.0,92,0.07,,,0.48,WUHU216HW,2013-03-07 04:20:00,
2013-03-06 20:25:00,43.0,40.9,29.82,SW,225,3.4,4.0,92,0.08,,,0.49,WUHU216HW,2013-03-07 04:25:00,
2013-03-06 20:30:00,43.0,40.9,29.82,SSW,203,1.3,4.9,92,0.08,,,0.49,WUHU216HW,2013-03-07 04:30:00,
2013-03-06 20:35:00,43.2,41.0,29.82,South,180,1.3,6.3,92,0.07,,,0.49,WUHU216HW,2013-03-07 04:35:00,
2013-03-06 20:40:00,43.2,41.0,29.82,SW,225,2.5,6.3,92,0.07,,,0.50,WUHU216HW,2013-03-07 04:40:00,
2013-03-06 20:45:00,43.2,40.8,29.82,SSE,158,5.1,6.3,91,0.06,,,0.50,WUHU216HW,2013-03-07 04:45:00,
2013-03-06 20:50:00,43.2,40.8,29.83,SSW,203,1.6,6.3,91,0.06,,,0.50,WUHU216HW,2013-03-07 04:50:00,
2013-03-06 20:55:00,43.2,40.8,29.83,South,180,0.7,5.4,91,0.05,,,0.50,WUHU216HW,2013-03-07 04:55:00,
2013-03-06 21:00:00,43.2,40.8,29.83,SW,225,2.0,5.4,91,0.05,,,0.51,WUHU216HW,2013-03-07 05:00:00,
2013-03-06 21:01:00,43.2,40.8,29.83,SSE,158,2.7,5.4,91,0.05,,,0.51,WUHU216HW,2013-03-07 05:01:00,
2013-03-06 21:06:00,43.2,40.8,29.83,SSE,158,5.8,7.4,91,0.04,,,0.51,WUHU216HW,2013-03-07 05:06:00,
2013-03-06 21:11:00,43.0,40.6,29.83,SSE,158,4.5,7.4,91,0.04,,,0.51,WUHU216HW,2013-03-07 05:11:00,
2013-03-06 21:16:00,43.0,40.6,29.84,SW,225,5.4,6.5,91,0.03,,,0.51,WUHU216HW,2013-03-07 05:16:00,
2013-03-06 21:21:00,43.0,40.6,29.84,SSW,203,4.0,5.4,91,0.04,,,0.52,WUHU216HW,2013-03-07 05:21:00,
2013-03-06 21:26:00,43.0,40.6,29.84,South,180,0.9,4.7,91,0.03,,,0.52,WUHU216HW,2013-03-07 05:26:00,
2013-03-06 21:31:00,42.8,40.4,29.85,South,180,2.9,4.9,91,0.03,,,0.52,WUHU216HW,2013-03-07 05:31:00,
2013-03-06 21:36:00,42.8,40.4,29.85,SSW,203,1.6,6.9,91,0.02,,,0.52,WUHU216HW,2013-03-07 05:36:00,
2013-03-06 21:41:00,42.8,40.4,29.85,SSE,158,4.9,6.9,91,0.02,,,0.52,WUHU216HW,2013-03-07 05:41:00,
2013-03-06 21:46:00,42.8,40.4,29.85,SSE,158,2.2,4.9,91,0.02,,,0.52,WUHU216HW,2013-03-07 05:46:00,
2013-03-06 21:51:00,42.8,40.4,29.85,SSE,158,2.9,7.2,91,0.03,,,0.53,WUHU216HW,2013-03-07 05:51:00,
2013-03-06 21:56:00,42.8,40.4,29.85,SSE,158,2.7,7.2,91,0.02,,,0.53,WUHU216HW,2013-03-07 05:56:00,
2013-03-06 22:01:00,42.8,40.4,29.86,SSW,203,2.0,6.0,91,0.02,,,0.53,WUHU216HW,2013-03-07 06:01:00,
2013-03-06 22:06:00,42.8,40.4,29.86,South,180,1.8,5.4,91,0.02,,,0.53,WUHU216HW,2013-03-07 06:06:00,
2013-03-06 22:11:00,42.7,40.2,29.86,SW,225,1.1,5.1,91,0.03,,,0.54,WUHU216HW,2013-03-07 06:11:00,
2013-03-06 22:16:00,42.7,40.2,29.86,SSE,158,1.8,5.1,91,0.03,,,0.54,WUHU216HW,2013-03-07 06:16:00,
2013-03-06 22:21:00,42.8,40.4,29.87,SSW,203,2.7,3.1,91,0.02,,,0.54,WUHU216HW,2013-03-07 06:21:00,
2013-03-06 22:26:00,42.7,40.2,29.87,SW,225,1.8,5.8,91,0.03,,,0.55,WUHU216HW,2013-03-07 06:26:00,
2013-03-06 22:31:00,42.7,40.2,29.87,South,180,3.1,5.8,91,0.03,,,0.55,WUHU216HW,2013-03-07 06:31:00,
2013-03-06 22:36:00,42.7,40.2,29.87,South,180,2.0,5.1,91,0.03,,,0.55,WUHU216HW,2013-03-07 06:36:00,
2013-03-06 22:41:00,42.7,40.2,29.88,South,180,1.8,3.8,91,0.04,,,0.56,WUHU216HW,2013-03-07 06:41:00,
2013-03-06 22:46:00,42.7,40.2,29.88,SW,225,2.5,4.7,91,0.04,,,0.56,WUHU216HW,2013-03-07 06:46:00,
2013-03-06 22:51:00,42.7,40.2,29.88,South,180,2.0,4.7,91,0.03,,,0.56,WUHU216HW,2013-03-07 06:51:00,
2013-03-06 22:56:00,42.7,40.2,29.88,South,180,1.8,2.7,91,0.03,,,0.56,WUHU216HW,2013-03-07 06:56:00,
2013-03-06 23:01:00,42.7,40.2,29.88,SSE,158,1.8,2.9,91,0.04,,,0.57,WUHU216HW,2013-03-07 07:01:00,
2013-03-06 23:06:00,42.7,40.2,29.88,SSW,203,1.1,2.9,91,0.04,,,0.57,WUHU216HW,2013-03-07 07:06:00,
2013-03-06 23:11:00,42.7,40.2,29.88,South,180,1.8,2.7,91,0.03,,,0.57,WUHU216HW,2013-03-07 07:11:00,
2013-03-06 23:16:00,42.8,40.4,29.89,South,180,4.0,4.0,91,0.03,,,0.57,WUHU216HW,2013-03-07 07:16:00,
2013-03-06 23:20:00,42.8,40.4,29.89,SSE,158,1.8,4.0,91,0.04,,,0.58,WUHU216HW,2013-03-07 07:20:00,
2013-03-06 23:25:00,42.8,40.4,29.89,South,180,2.2,4.0,91,0.03,,,0.58,WUHU216HW,2013-03-07 07:25:00,
2013-03-06 23:30:00,42.8,40.4,29.89,West,270,1.1,2.9,91,0.03,,,0.58,WUHU216HW,2013-03-07 07:30:00,
2013-03-06 23:35:00,42.8,40.4,29.89,SSW,203,0.4,2.9,91,0.02,,,0.58,WUHU216HW,2013-03-07 07:35:00,
2013-03-06 23:40:00,42.8,40.4,29.89,South,180,0.4,2.2,91,0.03,,,0.59,WUHU216HW,2013-03-07 07:40:00,
2013-03-06 23:45:00,42.8,40.4,29.90,South,180,1.8,2.2,91,0.03,,,0.59,WUHU216HW,2013-03-07 07:45:00,
2013-03-06 23:50:00,42.8,40.4,29.90,South,180,1.1,1.8,91,0.04,,,0.60,WUHU216HW,2013-03-07 07:50:00,
2013-03-06 23:56:00,42.8,40.4,29.90,South,180,1.1,2.5,91,0.04,,,0.60,WUHU216HW,2013-03-07 07:56:00,